This is the latest recevied weather packets stored in our database for station/object W5COG. If no packets are shown the sender has not sent any weather packets the latest 10 day(s).
| Time | Temp. | Humidity | Pressure | Rain* | Wind** | Luminosity | Snow |
|---|---|---|---|---|---|---|---|
| 1777500926 | 17.78° C | 53% | 1015.8 hPa | 0 mm | - | 317 W/m² | - |
| 1777500626 | 17.78° C | 52% | 1015.8 hPa | 0 mm | - | 282 W/m² | - |
| 1777500326 | 18.33° C | 52% | 1015.8 hPa | 0 mm | - | 319 W/m² | - |
| 1777500026 | 18.33° C | 53% | 1015.8 hPa | 0 mm | - | 573 W/m² | - |
| 1777499726 | 18.33° C | 52% | 1015.8 hPa | 0 mm | - | 535 W/m² | - |
| 1777499426 | 18.33° C | 53% | 1015.7 hPa | 0 mm | - | 371 W/m² | - |
| 1777499126 | 18.33° C | 51% | 1015.7 hPa | 0 mm | - | 569 W/m² | - |
| 1777498826 | 18.89° C | 51% | 1015.7 hPa | 0 mm | - | 627 W/m² | - |
| 1777498526 | 18.33° C | 52% | 1015.7 hPa | 0 mm | - | 737 W/m² | - |
| 1777498226 | 18.33° C | 52% | 1015.8 hPa | 0 mm | - | 682 W/m² | - |
| 1777497926 | 18.33° C | 52% | 1015.9 hPa | 0 mm | - | 495 W/m² | - |
| 1777497626 | 18.33° C | 53% | 1016 hPa | 0 mm | - | 462 W/m² | - |
| 1777496726 | 18.33° C | 52% | 1016.4 hPa | 0 mm | - | 550 W/m² | - |
| 1777496426 | 17.78° C | 54% | 1016.4 hPa | 0 mm | - | 518 W/m² | - |
| 1777496126 | 17.78° C | 51% | 1016.5 hPa | 0 mm | - | 688 W/m² | - |
| 1777495826 | 17.78° C | 53% | 1016.7 hPa | 0 mm | - | 395 W/m² | - |
| 1777495526 | 17.78° C | 51% | 1016.9 hPa | 0 mm | - | 470 W/m² | - |
| 1777495226 | 18.33° C | 51% | 1017 hPa | 0 mm | - | 582 W/m² | - |
| 1777494926 | 18.33° C | 52% | 1016.9 hPa | 0 mm | - | 803 W/m² | - |
| 1777494626 | 17.78° C | 52% | 1016.9 hPa | 0 mm | - | 606 W/m² | - |
| 1777494326 | 17.78° C | 52% | 1017 hPa | 0 mm | - | 557 W/m² | - |
| 1777494026 | 17.78° C | 51% | 1017.2 hPa | 0 mm | - | 621 W/m² | - |
| 1777493726 | 17.78° C | 52% | 1017.2 hPa | 0 mm | - | 732 W/m² | - |
| 1777493426 | 17.78° C | 52% | 1017.3 hPa | 0 mm | - | 465 W/m² | - |
| 1777493126 | 17.78° C | 52% | 1017.3 hPa | 0 mm | - | 563 W/m² | - |
* Rain latest hour (hover to see other rain measurements)
** Current wind speed in m/s (hover to see current wind gust speed)